Flag for Germany Weather past 2 weeks in Schönebeck, Saxony-Anhalt, Germany

Now
63 °F

Overcast.


Feels Like: 63 °F
Forecast: 56 / 68 °F
Wind: 2 mph from Northwest

Location: Magdeburg

Current Time: Sep 1, 2014 at 1:29:31 PM

Latest Report: Sep 1, 2014 at 1:00 PM


Visibility: 28 mi

Pressure: 30.07 "Hg

Humidity: 72%

Dew point: 54 °F

Location of SchönebeckLocation

Historic Weather in Schönebeck — Graph

°F

Schönebeck temperature yesterday

Maximum temperature yesterday: 65 °F (at 3:00 PM)
Minimum temperature yesterday: 55 °F (at 11:00 PM)
Average temperature yesterday: 61 °F

Past Weeks' High & Low Weather Summary

 TemperatureHumidityPressure
High75 °F (Aug 28, 6:00 PM)98% (Sep 1, 6:00 AM)30.08 "Hg (Sep 1, 6:00 AM)
Low45 °F (Aug 25, 7:00 AM)31% (Aug 28, 4:00 PM)29.62 "Hg (Aug 18, 3:00 PM)
Average59 °F71%29.92 "Hg
* Reported Aug 17 12:00 Noon — Sep 1 12:00 Noon, Schönebeck, Weather by CustomWeather, © 2014

Note: Actual official high and low records may vary slightly from our data, if they occured in-between our weather recording intervals... More about our weather records

Advertising

Schönebeck weather history for previous 24 hours

 ConditionsComfort  
Time TempWeatherWind HumidityBarometerVisibility
12:00 PM
Sep 1
62 °FOvercast.2 mph73%30.06 "Hg19 mi
11:00 AM61 °FOvercast.1 mph81%30.06 "Hg11 mi
10:00 AM59 °FLow clouds.2 mph88%30.05 "Hg8 mi
9:00 AM56 °FFog.1 mph95%30.05 "Hg3 mi
8:00 AM55 °FFog.2 mph97%30.03 "Hg2 mi
7:00 AM55 °FFog.2 mph98%30.01 "Hg2 mi
6:00 AM54 °FFog.2 mph98%30.01 "Hg2 mi
4:00 AM54 °FPassing clouds.2 mph93%29.99 "Hg6 mi
3:00 AM53 °FOvercast.1 mph91%29.99 "Hg14 mi
2:00 AM54 °FPassing clouds.2 mph91%29.98 "Hg16 mi
1:00 AM54 °FPassing clouds.1 mph94%29.97 "Hg7 mi
12:00 AM54 °FOvercast.1 mph93%29.96 "Hg9 mi
11:00 PM
Aug 31
55 °FPassing clouds.1 mph91%29.95 "Hg12 mi
10:00 PM56 °FPassing clouds.1 mph91%29.94 "Hg11 mi
9:00 PM58 °FPassing clouds.1 mph86%29.92 "Hg10 mi
8:00 PM61 °FOvercast.2 mph77%29.90 "Hg25 mi
7:00 PM63 °FOvercast.1 mph71%29.89 "Hg25 mi
6:00 PM64 °FOvercast.2 mph66%29.88 "Hg28 mi
4:00 PM65 °FOvercast.2 mph67%29.88 "Hg31 mi
3:00 PM65 °FOvercast.2 mph66%29.89 "Hg31 mi
2:00 PM65 °FPartly sunny.1 mph65%29.90 "Hg31 mi
1:00 PM64 °FPartly sunny.2 mph66%29.91 "Hg31 mi
Weather by CustomWeather, © 2014

See weather overviewHow to use our weather pages